User: anonymous   Login
Location: Unspecified
(0.0000°N, 0.0000°E)
Time: 10:14:55
(UTC+02:00)
Language:

GP-B - Orbit

View from above orbital plane
View from above orbital plane
View from above satellite
View from above satellite

Ground track
Ground track

The orbit data is extracted from the following two-line orbital elements,

1 28230U 04014A   15148.51935551  .00000386  00000-0  51103-4 0  9998
2 28230 089.8728 134.9899 0002459 075.5745 284.5750 14.78144876598198
Epoch (UTC): 28 May 2015 12:27:52
Eccentricity: 0.0002459
inclination: 89.8728°
perigee height: 633 km
apogee height: 637 km
right ascension of ascending node: 134.9899°
argument of perigee: 75.5745°
revolutions per day: 14.78144876
mean anomaly at epoch: 284.5750°
orbit number at epoch: 59819

The dashed part of the orbit path shows where the satellite is in the earth's shadow,  

DLR